FALCON HEAVY R/B, 55265

Orbit data source: Space-Track

FALCON HEAVY R/B, 55265 is space debris in GEO originally from a launch on Sun, 15 Jan 2023 UTC launched from the Air Force Eastern Test Range (AFETR). Debris objects in space refer to the collection of defunct objects orbiting the Earth. Examples of debris include non-operational satellites, rocket bodies, and fragments generated from explosions, collisions, or faulty payload assembly.

Loading next visibility...
Identifier
55265, 2023-008C
Orbit
GEO
Country
Flag of USUS
Related business
Manufacturer
SpaceX
Mission
Spacecraft
Bus & Motor
F9ST2, Unknown motor
Mass
~4,000 kg wet, ~4,000 kg dry
Launch date (UTC)
2023-01-15 (3 years ago)
Launch vehicle
Unknown
Launch site
Air Force Eastern Test Range (AFETR)
Object type
Payload
Rocket body
Debris
Shape & HBR
Cyl, Unknown HBR
Radar Cross Section
49.816 m²

Expand to show TLE details & history
Last TLE update: 1 day ago

TLE from 1 day ago
0 FALCON HEAVY R/B
1 55265U 23008C   25346.30583229 -.00000133  00000-0  00000-0 0  9996
2 55265   2.4121  77.3724 0054555  73.0448 287.1275  1.03135213  5966
Epoch: 2025-12-12T07:20Z
TLE epoch observation values (Epoch: 2025-12-12T07:20:23.909Z)
Latitude
-0.00001°
Longitude
-114.40409°
Altitude
34,936.371 km
Speed
3.109 km/s
True Right ascension
05h 07m 46s
True Declination
0° 00' 00"
Sunlit
Object was in daylight at epoch
Visualization orbit readout
Latitude
Unknown
Longitude
Unknown
Altitude
Unknown
Speed
Unknown
Apparent Right ascension
Unknown
Apparent Declination
Unknown
Sunlit
N/A
Visualization observer readout
Local Sidereal Time
07:30:36
Azimuth
Unknown
Elevation
Unknown
Doppler factor
Unknown
Orbital elements
Apogee altitude
35,229.347 km
Perigee altitude
34,777.831 km
Semi-major axis
41,381.726 km
Eccentricity
0.00546
Inclination
2.4121°
RAAN
77.3724°
Arg. of periapsis
73.0448°
True anomaly
286.52888°
Mean anomaly
287.1275°
Eccentric anomaly
286.82831°
Mean motion
0.25783 °/min
Orbital period
1,396.28 mins
BSTAR
0
Loading maneuver chart data...
Computing Atmospheric mass density...
Loading historical data...
Loading historical data...
Loading historical data...
Loading historical data...
Loading historical data...
Loading historical data...
Loading historical data...
Other satellites on launch #8 in the year 2023 (2023-01-15 UTC)

Documentation

Showing up to 5 results
|